Tracking 28790 objects as of 18-Apr-2024
HD Live streaming from Space Station
objects crossing your sky now

DELTA 1 DEB

Track DELTA 1 DEB now!
10-day predictions


NORAD ID: 7030
Int'l Code: 1973-086W
Perigee: 1,510.0 km
Apogee: 1,654.5 km
Inclination: 101.9 °
Period: 117.6 minutes
Semi major axis: 7953 km
RCS: 0.058 m2 (small)
Launch date: November 6, 1973
Source: United States (US)
Launch site: AIR FORCE WESTERN TEST RANGE (AFWTR)

Note: This is SATELLITE DEBRIS
Your satellite tracking list
Your tracking list is empty




NASA's NSSDC Master Catalog

Two Line Element Set (TLE):
1  7030U 73086W   24108.90919279  .00000067  00000-0  98771-3 0  9993
2  7030 101.9292 129.6350 0090811 172.5364 307.4166 12.24010407253298
Source of the keplerian elements: AFSPC